TimeAKDT,TemperatureF,Dew PointF,Humidity,Sea Level PressureIn,VisibilityMPH,Wind Direction,Wind SpeedMPH,Gust SpeedMPH,PrecipitationIn,Events,Conditions,WindDirDegrees,DateUTC
12:53 AM,-0.9,-6.0,79,30.22,5.0,North,4.6,-,0.00,Snow,Light Snow,360,2011-11-02 08:53:00
1:53 AM,-0.0,-5.1,79,30.25,6.0,North,3.5,-,0.00,Snow,Light Snow,10,2011-11-02 09:53:00
2:53 AM,-2.9,-8.0,79,30.28,6.0,NNW,10.4,-,0.00,Snow,Light Snow,330,2011-11-02 10:53:00
3:53 AM,-2.0,-7.1,79,30.31,5.0,North,4.6,-,0.00,Snow,Light Snow,10,2011-11-02 11:53:00
4:53 AM,-2.0,-7.1,79,30.33,5.0,North,8.1,-,0.00,Snow,Light Snow,360,2011-11-02 12:53:00
5:53 AM,-2.0,-7.1,79,30.36,5.0,North,9.2,-,0.00,Snow,Light Snow,360,2011-11-02 13:53:00
6:53 AM,-2.0,-7.1,79,30.37,5.0,NNE,8.1,-,0.00,Snow,Light Snow,20,2011-11-02 14:53:00
7:53 AM,-2.0,-7.1,79,30.40,5.0,NNW,8.1,-,0.00,Snow,Light Snow,340,2011-11-02 15:53:00
8:53 AM,-0.9,-6.0,79,30.42,4.0,North,8.1,-,0.00,Snow,Light Snow,350,2011-11-02 16:53:00
9:53 AM,-0.9,-6.0,79,30.45,2.0,North,8.1,-,0.01,Snow,Light Snow,10,2011-11-02 17:53:00
10:53 AM,-0.9,-6.0,79,30.46,2.0,North,10.4,-,0.00,Snow,Light Snow,360,2011-11-02 18:53:00
11:17 AM,-0.4,-5.8,78,30.42,1.5,North,9.2,-,0.00,Snow,Light Snow,10,2011-11-02 19:17:00
11:50 AM,-0.4,-5.8,78,30.43,2.0,North,8.1,-,0.00,Snow,Light Snow,360,2011-11-02 19:50:00
11:53 AM,-0.9,-6.0,79,30.48,2.0,North,8.1,-,0.00,Snow,Light Snow,350,2011-11-02 19:53:00
12:53 PM,1.0,-4.0,79,30.49,3.0,NNW,9.2,-,0.00,Snow,Light Snow,340,2011-11-02 20:53:00
1:53 PM,1.9,-4.0,76,30.49,3.0,North,8.1,-,0.00,Snow,Light Snow,350,2011-11-02 21:53:00
2:53 PM,3.0,-2.0,80,30.49,6.0,North,9.2,-,0.00,Snow,Light Snow,350,2011-11-02 22:53:00
3:53 PM,3.0,-2.0,80,30.49,7.0,North,8.1,-,0.00,Snow,Light Snow,350,2011-11-02 23:53:00
4:53 PM,3.9,-0.9,80,30.48,7.0,North,6.9,-,0.00,Snow,Light Snow,360,2011-11-03 00:53:00
5:53 PM,1.9,-2.0,83,30.48,9.0,North,8.1,-,0.00,Snow,Light Snow,350,2011-11-03 01:53:00
6:53 PM,-0.0,-5.1,79,30.47,9.0,North,5.8,-,0.00,Snow,Light Snow,350,2011-11-03 02:53:00
7:53 PM,-2.9,-8.0,79,30.47,9.0,North,5.8,-,0.00,Snow,Light Snow,350,2011-11-03 03:53:00
8:23 PM,-4.0,-7.6,85,30.42,9.0,Calm,Calm,-,0.00,,Scattered Clouds,0,2011-11-03 04:23:00
8:53 PM,-7.1,-11.9,79,30.46,9.0,Calm,Calm,-,0.00,,Scattered Clouds,0,2011-11-03 04:53:00
9:53 PM,-6.0,-11.0,79,30.46,9.0,NNW,6.9,-,N/A,,Partly Cloudy,340,2011-11-03 05:53:00
10:53 PM,-9.0,-14.1,79,30.45,9.0,Variable,3.5,-,N/A,,Partly Cloudy,0,2011-11-03 06:53:00
11:53 PM,-8.0,-13.0,79,30.43,10.0,North,4.6,-,N/A,,Partly Cloudy,10,2011-11-03 07:53:00